Find Shiyan 12-02

NORAD ID: 50322 Int'l Des: 2021-129 Owner: CAST Country: CN operational
HEOCIRCULAR

Live Position

Loading 3D Globe...

About Shiyan 12-02

Description loading...

Upcoming Passes

Passes for default location (London). Set your location on the main map for personalized predictions.

Altitude History

Loading altitude history...

Two-Line Element Set

1 50322U 21129B 26105.76005924 .00000142 00000-0 00000+0 0 9990
2 50322 3.5128 80.7444 0000632 35.0914 43.0549 1.00467423 15876
Epoch: Apr 15, 2026 • Age: 13 hours

Current Status

Altitude 35733.4 km
Velocity 3.08 km/s
Sub-Earth Point -3.49°S, 41.7°E
Launch Date Dec 23, 2021
Age 4.3 years
Type other

Technical Details

Classification Payload
Mass 3000.00 kg
Dry Mass 2000.00 kg
Total Mass 3000.00 kg
Length 5.00 m
Diameter 3.00 m
Span 9.00 m
Shape Box + 2 pan
Manufacturer CAST
Bus Type XYZ
Phase Status In Orbit
Owner/State CAST/CN

Most Searched